Orbital Elements at Epoch 2459200.5 (2020-Dec-17.0) TDB
Reference: JPL 24 (heliocentric ecliptic J2000)
Element | Value | Uncertainty (1-sigma) | Units |
e | .2460645132105636 | 3.654e-08 | |
a | 2.760757262156157 | 1.4555e-08 | au |
q | 2.081432870351174 | 1.0103e-07 | au |
i | 8.997484937235489 | 4.2683e-06 | deg |
node | 232.7170438586837 | 2.4604e-05 | deg |
peri | 353.7376853392158 | 2.6742e-05 | deg |
M | 41.24629206659041 | 7.7703e-06 | deg |
tp | 2459008.534504738035 (2020-Jun-08.03450474) | 3.6499e-05 | TDB |
period | 1675.485839617681 4.59 | 1.325e-05 3.628e-08 | d yr |
n | .2148630513535979 | 1.6992e-09 | deg/d |
Q | 3.440081653961141 | 1.8137e-08 | au |
|
| | Orbit Determination Parameters
Additional Information
|